This is the latest recevied weather packets stored in our database for station/object EW2310. If no packets are shown the sender has not sent any weather packets the latest 10 day(s).
| Time | Temp. | Humidity | Pressure | Rain* | Wind** | Luminosity | Snow |
|---|---|---|---|---|---|---|---|
| 1777946746 | 13.89° C | 84% | 1014.9 hPa | 0 mm | - | 0 W/m² | - |
| 1777946444 | 13.89° C | 84% | 1014.9 hPa | 0 mm | - | 0 W/m² | - |
| 1777945546 | 14.44° C | 82% | 1015.1 hPa | 0 mm | - | 0 W/m² | - |
| 1777943144 | 14.44° C | 81% | 1015.4 hPa | 0.51 mm | - | 0 W/m² | - |
| 1777942844 | 14.44° C | 80% | 1015.4 hPa | 0.51 mm | - | 0 W/m² | - |
| 1777941644 | 15° C | 78% | 1015.4 hPa | 0.25 mm | - | 0 W/m² | - |
| 1777938946 | 15.56° C | 73% | 1015.8 hPa | 0 mm | - | 0 W/m² | - |
| 1777938047 | 15.56° C | 75% | 1015.9 hPa | 0 mm | - | 0 W/m² | - |
| 1777937747 | 15.56° C | 75% | 1016 hPa | 0 mm | - | 0 W/m² | - |
| 1777935343 | 15.56° C | 78% | 1016.6 hPa | 0 mm | - | 0 W/m² | - |
| 1777931743 | 15° C | 80% | 1016.7 hPa | 0 mm | - | 0 W/m² | - |
| 1777930843 | 15° C | 80% | 1016.6 hPa | 0 mm | - | 0 W/m² | - |
| 1777929343 | 15.56° C | 80% | 1016.7 hPa | 0 mm | - | 0 W/m² | - |
| 1777927543 | 15.56° C | 79% | 1016.9 hPa | 0 mm | - | 0 W/m² | - |
| 1777926944 | 15.56° C | 79% | 1017.1 hPa | 0 mm | - | 0 W/m² | - |
| 1777925444 | 16.11° C | 79% | 1017.1 hPa | 0 mm | - | 0 W/m² | - |
| 1777925143 | 16.11° C | 78% | 1017 hPa | 0 mm | - | 0 W/m² | - |
| 1777924843 | 16.11° C | 78% | 1017 hPa | 0 mm | - | 0 W/m² | - |
| 1777924247 | 16.11° C | 78% | 1016.9 hPa | 0 mm | - | 0 W/m² | - |
| 1777923644 | 16.11° C | 77% | 1017 hPa | 0 mm | - | 0 W/m² | - |
| 1777923043 | 16.11° C | 77% | 1016.8 hPa | 0 mm | - | 0 W/m² | - |
| 1777919446 | 16.67° C | 78% | 1016.6 hPa | 0 mm | - | 0 W/m² | - |
| 1777917346 | 16.67° C | 77% | 1016.6 hPa | 0 mm | - | 11 W/m² | - |
| 1777916744 | 16.67° C | 77% | 1016.7 hPa | 0 mm | - | 16 W/m² | - |
| 1777916143 | 17.22° C | 76% | 1016.6 hPa | 0 mm | - | 26 W/m² | - |
* Rain latest hour (hover to see other rain measurements)
** Current wind speed in m/s (hover to see current wind gust speed)